Regional Weather Roundup
Issued by NWS

Home | Current Version | Previous Version | Text Only | Print | Product List | Glossary On
Versions: 1 2 3 4 5 6 7 8 9 10 11 12 13 14 15 16 17 18 19 20 21 22 23 24 25 26 27 28 29 30 31 32 33 34 35 36 37 38 39 40 41 42 43 44 45 46 47 48 49 50
000
ASUS43 KOAX 231510
RWRNE

WEATHER ROUNDUP FOR NEBRASKA
NATIONAL WEATHER SERVICE OMAHA NE
1000 AM CDT SAT SEP 23 2017

NOTES: SATELLITE DATA IS BEING USED TO AUGMENT CLOUD COVER ABOVE
       12000 FEET.
       "FAIR" INDICATES FEW OR NO CLOUDS BELOW 12,000 FEET WITH NO
       SIGNIFICANT WEATHER AND/OR OBSTRUCTIONS TO VISIBILITY.


NEZ001>004-019>022-054>056-231600-
NEBRASKA PANHANDLE

CITY           SKY/WX    TMP DP  RH WIND       PRES   REMARKS
SCOTTSBLUFF    CLOUDY    45  42  89 CALM      30.03R FOG
ALLIANCE       CLOUDY    44  42  93 N13       30.01F FOG
CHADRON        CLOUDY    45  42  89 N8        30.06S
GORDON         CLOUDY    44  43  97 N8        30.04R FOG
KIMBALL        CLOUDY    42  42  99 N9        30.01R FOG
SIDNEY         CLOUDY    45  44  97 N9        29.99R FOG
$$

NEZ057>060-069>072-079>082-231600-
SOUTHWEST NEBRASKA

CITY           SKY/WX    TMP DP  RH WIND       PRES   REMARKS
NORTH PLATTE   CLOUDY    53  51  93 NE12      29.95R
IMPERIAL       CLOUDY    53  48  83 N17       29.92F
LEXINGTON      CLOUDY    65  58  77 NE6       29.92S
MCCOOK         PTSUNNY   74  65  73 S10       29.87F
OGALLALA       CLOUDY    50  49  94 NE10      29.97S
$$

NEZ005>010-023>029-035>040-094-231600-
NORTH CENTRAL NEBRASKA

CITY           SKY/WX    TMP DP  RH WIND       PRES   REMARKS
VALENTINE      LGT RAIN  49  47  93 N10       30.02S FOG
AINSWORTH      CLOUDY    49  49 100 N12       30.01R FOG
BROKEN BOW     CLOUDY    54  50  86 N8        29.95S
O`NEILL        CLOUDY    54  54  99 N8        30.00R FOG
ORD            CLOUDY    59  53  80 N7        29.94R
THEDFORD       CLOUDY    49  48  97 N10       30.00R FOG
$$

NEZ041-046>049-061>064-073>077-083>087-231600-
SOUTH CENTRAL NEBRASKA

CITY           SKY/WX    TMP DP  RH WIND       PRES   REMARKS
GRAND ISLAND   MOSUNNY   75  67  76 S9        29.93F
AURORA         PTSUNNY   74  67  77 S8        29.94S
HASTINGS       PTSUNNY   76  64  66 S10       29.94S
HEBRON         PTSUNNY   79  66  64 S12G17    29.94S
HOLDREGE       PTSUNNY   75  64  68 S12       29.91S
KEARNEY        MOSUNNY   76  66  71 S15G21    29.92F
YORK           SUNNY     79  66  65 S14       29.94S
$$

NEZ011>018-030>034-042>045-231600-
NORTHEAST NEBRASKA

CITY           SKY/WX    TMP DP  RH WIND       PRES   REMARKS
NORFOLK        SUNNY     67  61  81 SE8       29.93S
ALBION         PTSUNNY   65  60  84 E5        29.95F
BLAIR          SUNNY     78  68  70 S14G21    29.97R
COLUMBUS       PTSUNNY   76  68  76 SE9       29.95F
FREMONT        MOSUNNY   79  66  65 S8        29.96S
TEKAMAH        MOSUNNY   79  68  69 S12       29.95S
WAYNE          SUNNY     67  64  91 SE3       29.95S
$$

NEZ050>053-065>068-078-088>093-231600-
SOUTHEAST NEBRASKA

CITY           SKY/WX    TMP DP  RH WIND       PRES   REMARKS
LINCOLN        SUNNY     81  66  60 S14       29.95S
OMAHA EPPLEY   PTSUNNY   80  67  64 S14       29.97S
BEATRICE       SUNNY     80  67  66 S9        29.97S
FALLS CITY     SUNNY     80  67  64 S8        30.00R
NEBRASKA CITY  SUNNY     78  70  75 S10G17    29.99S
PLATTSMOUTH    SUNNY     78  68  73 SE13      29.99R
$$

NEZ044-045-051>053-067-231600-
OMAHA AREA

CITY           SKY/WX    TMP DP  RH WIND       PRES   REMARKS
OMAHA EPPLEY   PTSUNNY   80  67  64 S14       29.97S
BLAIR          SUNNY     78  68  70 S14G21    29.97R
FREMONT        MOSUNNY   79  66  65 S8        29.96S
MILLARD        SUNNY     81  69  68 S9        29.97S
OFFUTT AFB     PTSUNNY   80  67  66 SE9       29.97S
PLATTSMOUTH    SUNNY     78  68  73 SE13      29.99R
WAHOO          FAIR      80  67  66 S12       29.95S
$$




USA.gov is the U.S. government's official web portal to all federal, state and local government web resources and services.